Location: T. Spence Memorial Observatory
(32.7356°N, 82.2098°W)
Time: 09:27:23
(UTC-04:00)

Daily predictions for brighter satellites

Satellite Brightness Start Highest point End
(mag) Time Altitude Azimuth Time Altitude Azimuth Time Altitude Azimuth
ALOS 2.7 19:40:31 10° SE 19:44:52 41° ENE 19:49:15 10° N
Cosmos 1606 Rocket 3.7 19:40:48 10° S 19:45:02 52° E 19:49:15 10° NNE
SKYMED 2 4.1 19:41:13 10° N 19:45:32 65° WNW 19:49:48 10° SSW
Cosmos 2058 Rocket 3.8 19:42:35 10° SSE 19:46:21 29° E 19:50:08 10° NNE
Cosmos 1271 Rocket 2.6 19:44:49 10° S 19:48:33 81° E 19:52:21 10° N
Thor Agena Rocket 3.7 19:44:53 10° NNE 19:50:03 56° ESE 19:55:06 10° S
Cosmos 1184 Rocket 2.8 19:47:23 10° N 19:50:47 86° E 19:54:09 10° S
Cosmos 1953 Rocket 4.2 19:47:01 10° NNE 19:50:57 33° E 19:54:50 10° SE
Yuri Rocket 4.4 19:48:31 10° SW 19:52:30 26° SSE 19:56:03 10° ESE
Cosmos 489 Rocket 4.5 19:46:31 10° NNW 19:52:48 73° ENE 19:59:04 10° SSE
Cosmos 1340 Rocket 3.3 19:50:50 10° N 19:54:40 39° E 19:58:29 10° SSE
CZ-4 R/B 4.0 19:52:30 10° SSW 19:55:58 26° W 19:59:29 10° NW
Cosmos 2263 4.2 19:50:40 10° NNW 19:56:15 64° ENE 20:01:51 10° SSE
SPOT 3 Rocket 3.7 19:53:03 10° S 19:58:10 79° WSW 20:03:21 10° NNW
Cosmos 1378 4.1 19:55:08 10° NNE 19:58:24 27° E 20:01:37 10° SE
FREGAT/IRIS 3.6 19:55:57 10° SE 19:58:33 26° ENE 20:01:08 10° NNE
OAO 2 Rocket 4.3 19:54:55 10° W 19:59:58 45° SSW 20:05:01 10° SE
CZ-3 Stage 3 1.9 19:59:12 10° SSW 20:00:15 14° SSE 20:01:13 11° SE
Lacrosse 5 2.4 20:03:33 10° NW 20:08:33 60° SW 20:13:30 10° SSE
Cosmos 1825 Rocket 3.5 20:05:37 10° N 20:10:03 87° E 20:14:30 10° S
Cosmos 1814 Rocket 4.2 20:09:38 10° SSW 20:14:48 74° WNW 20:19:58 10° NNE
Cosmos 1898 Rocket 3.4 20:11:11 10° NNW 20:16:23 85° ENE 20:21:33 10° SSE
Cosmos 1356 Rocket 4.4 20:13:23 10° NNE 20:17:05 27° ENE 20:20:07 13° SE
SJ-6B 3.2 20:17:15 10° SSE 20:21:07 44° ENE 20:24:54 10° N
Meteor 1-24 Rocket 4.4 20:16:28 10° NNE 20:21:51 35° ENE 20:27:03 10° SE
USA 234 4.2 20:16:55 10° SSE 20:23:09 47° SW 20:29:25 10° NW
SL-08 ROCKET BODY 4.3 20:17:51 10° S 20:23:42 83° E 20:29:37 10° N
Centaur AC-116 4.3 20:15:39 10° W 20:24:42 39° SSW 20:26:54 17° SE
Cosmos 990 Rocket 3.9 20:20:47 10° N 20:25:54 63° ENE 20:30:59 10° SSE
Cosmos 2181 Rocket 4.0 20:21:57 10° N 20:28:10 89° W 20:34:16 10° S
USA 81 4.0 20:25:50 10° N 20:31:08 80° E 20:36:24 10° S
Envisat 4.1 20:31:44 22° E 20:32:55 24° ENE 20:36:58 10° NNE
GPS 2-04 Rocket1 4.3 20:29:42 10° W 20:33:31 31° SSW 20:36:27 15° SSE
Geosat 4.1 20:28:52 10° SSE 20:33:53 79° WSW 20:38:55 10° NNW
Cosmos 1943 Rocket 2.5 20:28:56 10° NNW 20:34:29 71° WSW 20:40:04 10° S
Cosmos 2150 Rocket 4.0 20:32:22 10° NNW 20:37:44 84° ENE 20:43:09 10° SSE
Cosmos 2074 Rocket 3.9 20:34:11 10° S 20:40:23 78° E 20:46:35 10° N
Cosmos 1758 Rocket 4.5 20:37:44 10° NNW 20:42:06 51° W 20:46:26 10° SSW
Resurs 1-3 4.1 20:45:39 35° E 20:46:10 36° ENE 20:50:11 10° N
H-2A R/B 2.9 20:43:03 10° S 20:46:43 68° WSW 20:50:26 10° NNW
MOS 1-B Rocket 4.3 20:49:11 25° SE 20:52:24 44° ENE 20:57:52 10° N
ISS -2.0 20:51:13 10° SSW 20:52:33 21° S 20:52:33 21° S
Cosmos 841 Rocket 4.5 20:49:20 10° SW 20:54:16 48° WNW 20:59:14 10° N
Meteor 2-5 Rocket 4.1 20:49:37 10° NNW 20:55:25 68° W 21:01:04 10° S
Meteor 1-22 Rocket 4.3 20:49:38 10° S 20:55:28 84° W 21:01:05 10° N
Cosmos 1937 Rocket 4.4 20:55:40 10° NNW 21:00:46 50° WSW 21:05:48 10° S
Cosmos 1766 3.6 20:57:36 10° SSW 21:01:31 65° W 21:05:25 10° N
USA 229 DEB 4.3 20:55:37 10° NW 21:02:42 59° WSW 21:09:53 10° SSE
USA 229 4.3 20:55:43 10° NW 21:02:48 60° WSW 21:09:59 10° SSE
OAO 3 Copernicus 4.4 20:59:12 10° W 21:04:14 70° N 21:05:38 46° ENE
Resurs 01 Rocket 1.5 21:04:18 58° ESE 21:04:55 67° ENE 21:09:19 10° N
COSMOS 2406 3.4 20:59:31 10° SSW 21:05:10 71° WNW 21:10:54 10° NNE
ATLAS CENTAUR R/B 2.6 20:55:41 10° NW 21:06:38 70° NE 21:07:51 51° ESE
BREEZE-M DEB (TANK) 4.4 20:53:16 10° WSW 21:07:10 56° NW 21:10:18 21° NE
NOSS 3-1 (A) 4.2 20:59:45 10° NNW 21:07:28 59° ENE 21:10:51 37° ESE
FALCON 9 R/B 2.0 21:09:20 10° W 21:12:38 73° N 21:14:19 46° ENE
Cosmos 1656 Rocket 3.7 21:07:21 10° NNW 21:12:59 80° WSW 21:15:35 33° S
Nadezhda 3 Rocket 4.1 21:07:04 10° N 21:13:12 53° E 21:14:02 49° ESE
Centaur D AC-29 2.4 21:02:00 10° WSW 21:13:33 41° S 21:14:23 38° SSE
GP-B 3.0 21:12:12 10° N 21:16:18 74° NE 21:16:18 74° NE
NOSS 3-1 (C) 4.0 21:09:20 10° NNW 21:17:15 87° ENE 21:21:37 33° SSE
Cosmos 540 Rocket 3.9 21:13:41 10° SSW 21:18:42 59° WNW 21:23:45 10° N
Cosmos 1812 Rocket 3.7 21:17:07 10° SSW 21:21:31 71° W 21:25:59 10° N
BREEZE-M (TANK) 2.9 21:17:31 10° NW 21:26:36 81° SW 21:26:38 81° SW
Cosmos 1900 4.4 21:27:15 10° SSW 21:32:14 81° WNW 21:32:14 81° WNW
Milstar 3 Cent rocket 2.8 21:30:41 10° WSW 21:34:03 36° SSW 21:34:03 36° SSW
Spot 2 Rocket 3.8 21:38:58 59° SW 21:39:25 62° WSW 21:44:25 10° NNW
ATLAS 2AS CENTAUR R/B 4.2 22:41:58 10° NNW 22:46:19 33° N 22:46:19 33° N
